TUI3RT LDSP-EDDM

Flight info

Callsign TUI3RT
Flight time 1h 0m
Altitude 36000
Route ZDA DCT ROPUS DCT RASTA DCT REDBU Q112 NAPSA NAPSA1B
Aircraft B738/M-SDE2E3FGHIRWXY/LB1

Departure

Time 2026-05-05 16:57
Airport Split Saint Jerome Airport (LDSP)

Arrival

Time 2026-05-05 17:58
Airport Munich Airport (EDDM)
Time Latitude Longitude Altitude Speed Heading
2026-05-05 16:16 43.53727 16.29868 67 ft 0 kts 115°
2026-05-05 16:53 43.53727 16.29870 67 ft 0 kts 106°
2026-05-05 16:53 43.53735 16.29874 60 ft 2 kts
2026-05-05 16:53 43.53743 16.29847 60 ft 6 kts 286°
2026-05-05 16:53 43.53735 16.29751 63 ft 15 kts 233°
2026-05-05 16:54 43.53676 16.29644 59 ft 13 kts 239°
2026-05-05 16:54 43.53695 16.29529 72 ft 13 kts 284°
2026-05-05 16:54 43.53664 16.29404 69 ft 22 kts 236°
2026-05-05 16:54 43.53575 16.29228 85 ft 22 kts 233°
2026-05-05 16:55 43.53483 16.29062 87 ft 21 kts 232°
2026-05-05 16:55 43.53387 16.28892 86 ft 24 kts 232°
2026-05-05 16:55 43.53273 16.28687 86 ft 29 kts 230°
2026-05-05 16:55 43.53191 16.28574 84 ft 7 kts 281°
2026-05-05 16:56 43.53216 16.28575 83 ft 4 kts 58°
2026-05-05 16:56 43.53219 16.28580 83 ft 0 kts 53°
2026-05-05 16:56 43.53224 16.28589 84 ft 13 kts 53°
2026-05-05 16:57 43.53422 16.28945 88 ft 80 kts 52°
2026-05-05 16:57 43.53889 16.29783 77 ft 138 kts 51°
2026-05-05 16:57 43.54520 16.30955 365 ft 160 kts 56°
2026-05-05 16:57 43.55189 16.32310 762 ft 178 kts 61°
2026-05-05 16:58 43.55759 16.33837 1449 ft 181 kts 79°
2026-05-05 16:58 43.55498 16.35453 2175 ft 177 kts 133°
2026-05-05 16:58 43.54406 16.36151 2974 ft 178 kts 173°
2026-05-05 16:58 43.53212 16.36557 3651 ft 179 kts 148°
2026-05-05 16:59 43.52130 16.37416 4374 ft 181 kts 154°
2026-05-05 16:59 43.51002 16.38191 5071 ft 182 kts 155°
2026-05-05 16:59 43.49854 16.38997 5432 ft 188 kts 155°
2026-05-05 16:59 43.48707 16.39820 5477 ft 188 kts 154°
2026-05-05 17:00 43.47546 16.40659 5498 ft 189 kts 156°
2026-05-05 17:00 43.46294 16.40982 5503 ft 184 kts 189°
2026-05-05 17:00 43.45119 16.40262 5563 ft 196 kts 218°
2026-05-05 17:00 43.44173 16.38749 5827 ft 221 kts 230°
2026-05-05 17:01 43.43215 16.37033 6499 ft 229 kts 231°
2026-05-05 17:01 43.42230 16.35263 7190 ft 239 kts 233°
2026-05-05 17:01 43.41216 16.33439 8092 ft 239 kts 234°
2026-05-05 17:01 43.40215 16.31638 9105 ft 237 kts 235°
2026-05-05 17:02 43.39202 16.29818 9972 ft 242 kts 235°
2026-05-05 17:02 43.38176 16.27976 10793 ft 244 kts 235°
2026-05-05 17:02 43.37134 16.26111 11595 ft 247 kts 235°
2026-05-05 17:02 43.36086 16.24231 12402 ft 250 kts 236°
2026-05-05 17:03 43.35387 16.22068 13125 ft 251 kts 263°
2026-05-05 17:03 43.35522 16.19617 13523 ft 273 kts 288°
2026-05-05 17:03 43.36593 16.17342 13754 ft 302 kts 314°
2026-05-05 17:03 43.38266 16.15360 13961 ft 330 kts 319°
2026-05-05 17:04 43.40130 16.13330 14208 ft 352 kts 320°
2026-05-05 17:04 43.42088 16.11241 14831 ft 360 kts 320°
2026-05-05 17:04 43.44075 16.09120 15632 ft 362 kts 320°
2026-05-05 17:04 43.46065 16.06982 16428 ft 365 kts 319°
2026-05-05 17:05 43.48072 16.04807 17162 ft 369 kts 319°
2026-05-05 17:05 43.50099 16.02595 17832 ft 374 kts 319°
2026-05-05 17:05 43.52146 16.00352 18508 ft 378 kts 319°
2026-05-05 17:05 43.54209 15.98084 19101 ft 381 kts 319°
2026-05-05 17:06 43.56313 15.95765 19419 ft 393 kts 319°
2026-05-05 17:06 43.58481 15.93368 19664 ft 405 kts 319°
2026-05-05 17:06 43.60665 15.90954 20135 ft 409 kts 319°
2026-05-05 17:06 43.62888 15.88496 20730 ft 410 kts 319°
2026-05-05 17:07 43.65117 15.86031 21267 ft 412 kts 319°
2026-05-05 17:07 43.67359 15.83549 21710 ft 415 kts 319°
2026-05-05 17:07 43.69623 15.81038 22155 ft 418 kts 318°
2026-05-05 17:07 43.71887 15.78525 22625 ft 421 kts 318°
2026-05-05 17:08 43.74183 15.75975 23094 ft 423 kts 318°
2026-05-05 17:08 43.76478 15.73422 23545 ft 425 kts 318°
2026-05-05 17:08 43.78790 15.70847 23924 ft 427 kts 318°
2026-05-05 17:08 43.81108 15.68264 24295 ft 429 kts 318°
2026-05-05 17:09 43.83437 15.65666 24670 ft 431 kts 318°
2026-05-05 17:09 43.85776 15.63053 25029 ft 433 kts 318°
2026-05-05 17:09 43.88125 15.60428 25391 ft 435 kts 318°
2026-05-05 17:09 43.90485 15.57787 25734 ft 437 kts 318°
2026-05-05 17:10 43.92850 15.55136 26070 ft 439 kts 318°
2026-05-05 17:10 43.95233 15.52463 26353 ft 442 kts 318°
2026-05-05 17:10 43.97634 15.49767 26654 ft 444 kts 318°
2026-05-05 17:10 44.00036 15.47067 26986 ft 446 kts 317°
2026-05-05 17:11 44.02450 15.44352 27314 ft 447 kts 317°
2026-05-05 17:11 44.04872 15.41624 27614 ft 449 kts 317°
2026-05-05 17:11 44.07309 15.38876 27917 ft 451 kts 317°
2026-05-05 17:11 44.09806 15.36227 28282 ft 454 kts 324°
2026-05-05 17:12 44.12691 15.34380 28740 ft 458 kts 335°
2026-05-05 17:12 44.15653 15.32789 29278 ft 455 kts 334°
2026-05-05 17:12 44.18607 15.31180 29603 ft 456 kts 334°
2026-05-05 17:12 44.21563 15.29542 29904 ft 458 kts 334°
2026-05-05 17:13 44.24517 15.27886 30290 ft 457 kts 334°
2026-05-05 17:13 44.27451 15.26227 30714 ft 454 kts 333°
2026-05-05 17:13 44.30364 15.24572 31109 ft 451 kts 333°
2026-05-05 17:13 44.32646 15.23271 31373 ft 451 kts 333°
2026-05-05 17:14 44.33829 15.22595 31507 ft 451 kts 333°
2026-05-05 17:14 44.36726 15.20938 31834 ft 450 kts 333°
2026-05-05 17:14 44.39588 15.19300 32135 ft 450 kts 333°
2026-05-05 17:14 44.42521 15.17621 32454 ft 450 kts 333°
2026-05-05 17:15 44.45407 15.15967 32820 ft 448 kts 333°
2026-05-05 17:15 44.48256 15.14335 33160 ft 447 kts 333°
2026-05-05 17:15 44.51132 15.12684 33464 ft 447 kts 333°
2026-05-05 17:15 44.54008 15.11031 33772 ft 447 kts 333°
2026-05-05 17:16 44.56882 15.09378 34119 ft 445 kts 333°
2026-05-05 17:16 44.59743 15.07732 34356 ft 445 kts 333°
2026-05-05 17:16 44.62617 15.06074 34487 ft 448 kts 333°
2026-05-05 17:16 44.65501 15.04409 34688 ft 448 kts 333°
2026-05-05 17:17 44.68387 15.02743 34990 ft 446 kts 333°
2026-05-05 17:17 44.71249 15.01089 35275 ft 445 kts 333°
2026-05-05 17:17 44.74114 14.99431 35486 ft 446 kts 333°
2026-05-05 17:17 44.76983 14.97768 35689 ft 446 kts 333°
2026-05-05 17:18 44.79854 14.96102 35934 ft 446 kts 333°
2026-05-05 17:18 44.82728 14.94432 36014 ft 449 kts 333°
2026-05-05 17:18 44.88526 14.91058 36020 ft 451 kts 333°
2026-05-05 17:19 44.94286 14.87704 36010 ft 445 kts 333°
2026-05-05 17:19 44.99994 14.84371 36020 ft 443 kts 333°
2026-05-05 17:20 45.05688 14.81037 36018 ft 442 kts 333°
2026-05-05 17:20 45.11369 14.77702 36021 ft 442 kts 333°
2026-05-05 17:21 45.17057 14.74357 36031 ft 443 kts 333°
2026-05-05 17:22 45.25630 14.69301 36025 ft 448 kts 333°
2026-05-05 17:22 45.31354 14.65916 36029 ft 449 kts 333°
2026-05-05 17:23 45.37136 14.62491 36024 ft 451 kts 333°
2026-05-05 17:23 45.42912 14.59062 36017 ft 452 kts 333°
2026-05-05 17:24 45.48713 14.55610 36010 ft 451 kts 334°
2026-05-05 17:24 45.54509 14.52149 36028 ft 452 kts 333°
2026-05-05 17:25 45.60298 14.48689 36011 ft 453 kts 333°
2026-05-05 17:25 45.66107 14.45211 36008 ft 453 kts 333°
2026-05-05 17:26 45.71911 14.41726 36008 ft 452 kts 333°
2026-05-05 17:26 45.77715 14.38232 35999 ft 452 kts 333°
2026-05-05 17:27 45.83514 14.34734 35994 ft 452 kts 333°
2026-05-05 17:27 45.89312 14.31229 36010 ft 452 kts 333°
2026-05-05 17:28 45.95103 14.27718 36003 ft 452 kts 333°
2026-05-05 17:28 46.00898 14.24197 35998 ft 452 kts 333°
2026-05-05 17:29 46.06655 14.20693 35996 ft 452 kts 333°
2026-05-05 17:29 46.12467 14.17223 36002 ft 453 kts 334°
2026-05-05 17:30 46.18348 14.13934 35995 ft 453 kts 335°
2026-05-05 17:30 46.24227 14.10662 35994 ft 453 kts 335°
2026-05-05 17:31 46.30106 14.07357 36007 ft 454 kts 334°
2026-05-05 17:31 46.35994 14.04020 35992 ft 454 kts 334°
2026-05-05 17:32 46.41888 14.00670 35990 ft 456 kts 334°
2026-05-05 17:32 46.47793 13.97306 35982 ft 457 kts 334°
2026-05-05 17:33 46.53717 13.93923 35956 ft 457 kts 335°
2026-05-05 17:33 46.59631 13.90538 35968 ft 457 kts 335°
2026-05-05 17:34 46.65545 13.87146 35966 ft 457 kts 334°
2026-05-05 17:34 46.71469 13.83739 35941 ft 458 kts 334°
2026-05-05 17:35 46.77397 13.80322 35940 ft 458 kts 334°
2026-05-05 17:35 46.83331 13.76895 35957 ft 458 kts 334°
2026-05-05 17:36 46.89253 13.73466 35928 ft 458 kts 334°
2026-05-05 17:36 46.95193 13.70017 35601 ft 460 kts 334°
2026-05-05 17:36 46.98164 13.68290 35347 ft 458 kts 334°
2026-05-05 17:37 47.01113 13.66574 35098 ft 455 kts 335°
2026-05-05 17:37 47.03059 13.65440 34945 ft 454 kts 334°
2026-05-05 17:37 47.06998 13.63141 34621 ft 456 kts 334°
2026-05-05 17:37 47.09944 13.61419 34364 ft 457 kts 334°
2026-05-05 17:38 47.12904 13.59686 34138 ft 459 kts 334°
2026-05-05 17:38 47.15873 13.57946 33903 ft 461 kts 334°
2026-05-05 17:38 47.18856 13.56196 33611 ft 463 kts 334°
2026-05-05 17:38 47.21860 13.54432 33350 ft 464 kts 334°
2026-05-05 17:39 47.24846 13.52677 33092 ft 465 kts 334°
2026-05-05 17:39 47.26838 13.51505 32890 ft 465 kts 334°
2026-05-05 17:39 47.30860 13.49134 32557 ft 466 kts 334°
2026-05-05 17:39 47.33878 13.47354 32275 ft 468 kts 334°
2026-05-05 17:40 47.36857 13.45595 31987 ft 467 kts 334°
2026-05-05 17:40 47.39873 13.43811 31748 ft 467 kts 334°
2026-05-05 17:40 47.42891 13.42024 31498 ft 468 kts 334°
2026-05-05 17:40 47.45912 13.40232 31168 ft 470 kts 334°
2026-05-05 17:41 47.48918 13.38270 30709 ft 473 kts 328°
2026-05-05 17:41 47.50823 13.36612 30488 ft 471 kts 321°
2026-05-05 17:41 47.53395 13.33666 30030 ft 466 kts 316°
2026-05-05 17:41 47.55895 13.30591 29232 ft 466 kts 316°
2026-05-05 17:42 47.58373 13.27505 28319 ft 469 kts 316°
2026-05-05 17:42 47.60872 13.24402 27541 ft 468 kts 316°
2026-05-05 17:42 47.63354 13.21344 26994 ft 461 kts 316°
2026-05-05 17:42 47.65818 13.18328 26387 ft 457 kts 317°
2026-05-05 17:43 47.68249 13.15363 25826 ft 453 kts 317°
2026-05-05 17:43 47.70677 13.12405 25284 ft 450 kts 317°
2026-05-05 17:43 47.73084 13.09469 24721 ft 447 kts 317°
2026-05-05 17:43 47.75311 13.06749 24193 ft 444 kts 317°
2026-05-05 17:44 47.77691 13.03837 23620 ft 442 kts 317°
2026-05-05 17:44 47.80055 13.00941 22993 ft 440 kts 317°
2026-05-05 17:44 47.82410 12.98052 22369 ft 436 kts 317°
2026-05-05 17:44 47.84706 12.95231 21789 ft 432 kts 317°
2026-05-05 17:45 47.87016 12.92391 21240 ft 428 kts 317°
2026-05-05 17:45 47.89301 12.89578 20687 ft 424 kts 317°
2026-05-05 17:45 47.91567 12.86785 20125 ft 421 kts 317°
2026-05-05 17:45 47.93810 12.84008 19497 ft 417 kts 316°
2026-05-05 17:46 47.95850 12.80920 18689 ft 419 kts 307°
2026-05-05 17:46 47.97487 12.77358 18087 ft 414 kts 297°
2026-05-05 17:46 47.98931 12.73645 17276 ft 414 kts 297°
2026-05-05 17:46 48.00371 12.69920 16501 ft 414 kts 297°
2026-05-05 17:47 48.01818 12.66211 15744 ft 413 kts 298°
2026-05-05 17:47 48.03262 12.62557 14994 ft 404 kts 298°
2026-05-05 17:47 48.04692 12.58948 14274 ft 404 kts 298°
2026-05-05 17:47 48.06136 12.55352 13556 ft 402 kts 300°
2026-05-05 17:48 48.07598 12.51869 12741 ft 390 kts 300°
2026-05-05 17:48 48.09036 12.48499 11983 ft 379 kts 300°
2026-05-05 17:48 48.10445 12.45220 11232 ft 370 kts 300°
2026-05-05 17:48 48.11866 12.42114 10957 ft 351 kts 305°
2026-05-05 17:49 48.13596 12.39670 10793 ft 337 kts 325°
2026-05-05 17:49 48.15623 12.38123 10684 ft 319 kts 333°
2026-05-05 17:49 48.17613 12.36833 10545 ft 304 kts 334°
2026-05-05 17:49 48.19539 12.35624 10173 ft 298 kts 334°
2026-05-05 17:50 48.21450 12.34433 9672 ft 298 kts 334°
2026-05-05 17:50 48.23369 12.33244 9153 ft 297 kts 334°
2026-05-05 17:50 48.25270 12.32065 8703 ft 293 kts 334°
2026-05-05 17:50 48.27141 12.30904 8332 ft 288 kts 334°
2026-05-05 17:51 48.28961 12.29779 8090 ft 278 kts 334°
2026-05-05 17:51 48.30741 12.28683 7654 ft 277 kts 334°
2026-05-05 17:51 48.32394 12.27288 7225 ft 269 kts 314°
2026-05-05 17:51 48.33489 12.25083 6824 ft 261 kts 298°
2026-05-05 17:52 48.34378 12.22650 6222 ft 269 kts 297°
2026-05-05 17:52 48.35229 12.20208 6158 ft 258 kts 295°
2026-05-05 17:52 48.36024 12.17811 5814 ft 254 kts 294°
2026-05-05 17:52 48.36765 12.15484 5698 ft 237 kts 289°
2026-05-05 17:53 48.36973 12.13150 5647 ft 216 kts 266°
2026-05-05 17:53 48.36845 12.10910 5408 ft 213 kts 264°
2026-05-05 17:53 48.36695 12.08728 5136 ft 207 kts 264°
2026-05-05 17:53 48.36531 12.06597 4869 ft 204 kts 264°
2026-05-05 17:54 48.36364 12.04489 4615 ft 202 kts 264°
2026-05-05 17:54 48.36199 12.02410 4338 ft 198 kts 264°
2026-05-05 17:54 48.36037 12.00379 4082 ft 193 kts 264°
2026-05-05 17:54 48.35881 11.98403 3823 ft 188 kts 265°
2026-05-05 17:55 48.35728 11.96468 3578 ft 185 kts 266°
2026-05-05 17:55 48.35581 11.94598 3344 ft 175 kts 265°
2026-05-05 17:55 48.35442 11.92823 3133 ft 170 kts 266°
2026-05-05 17:55 48.35306 11.91101 2905 ft 162 kts 266°
2026-05-05 17:56 48.35181 11.89507 2714 ft 144 kts 266°
2026-05-05 17:56 48.35066 11.88021 2496 ft 143 kts 265°
2026-05-05 17:56 48.34947 11.86491 2309 ft 149 kts 266°
2026-05-05 17:56 48.34829 11.84959 2099 ft 148 kts 264°
2026-05-05 17:57 48.34709 11.83419 1895 ft 148 kts 264°
2026-05-05 17:57 48.34590 11.81882 1713 ft 148 kts 264°
2026-05-05 17:57 48.34471 11.80347 1516 ft 147 kts 264°
2026-05-05 17:57 48.34375 11.78934 1484 ft 119 kts 264°
2026-05-05 17:58 48.34295 11.77958 1475 ft 63 kts 263°
2026-05-05 17:58 48.34254 11.77385 1484 ft 40 kts 269°
2026-05-05 17:58 48.34299 11.77122 1477 ft 14 kts 292°
2026-05-05 17:58 48.34337 11.76988 1474 ft 14 kts 293°
2026-05-05 17:59 48.34365 11.76889 1474 ft 8 kts 293°
2026-05-05 17:59 48.34387 11.76809 1482 ft 8 kts 293°
2026-05-05 17:59 48.34415 11.76735 1481 ft 9 kts 316°
2026-05-05 17:59 48.34474 11.76703 1482 ft 10 kts 350°
2026-05-05 18:00 48.34549 11.76697 1471 ft 12 kts 27°
2026-05-05 18:00 48.34579 11.76815 1474 ft 14 kts 84°
2026-05-05 18:00 48.34591 11.76970 1481 ft 16 kts 82°
2026-05-05 18:00 48.34607 11.77160 1484 ft 21 kts 83°
2026-05-05 18:01 48.34626 11.77402 1475 ft 26 kts 83°
2026-05-05 18:01 48.34648 11.77687 1478 ft 29 kts 83°
2026-05-05 18:01 48.34703 11.77889 1484 ft 17 kts 12°
2026-05-05 18:01 48.34762 11.77884 1480 ft 2 kts 353°
2026-05-05 18:02 48.34770 11.77883 1479 ft 1 kts 353°
2026-05-05 18:02 48.34773 11.77882 1480 ft 0 kts 353°
2026-05-05 18:04 48.34783 11.77880 1484 ft 5 kts 354°
2026-05-05 18:04 48.34860 11.77868 1484 ft 17 kts 353°
2026-05-05 18:04 48.35000 11.77842 1478 ft 21 kts 353°
2026-05-05 18:05 48.35145 11.77824 1472 ft 21 kts 10°
2026-05-05 18:05 48.35193 11.78008 1484 ft 20 kts 84°
2026-05-05 18:05 48.35170 11.78179 1484 ft 18 kts 153°
2026-05-05 18:05 48.35052 11.78216 1475 ft 17 kts 173°
2026-05-05 18:06 48.34943 11.78235 1481 ft 14 kts 173°
2026-05-05 18:06 48.34897 11.78271 1484 ft 7 kts 116°
2026-05-05 18:06 48.34898 11.78366 1472 ft 3 kts 84°
2026-05-05 18:06 48.34899 11.78377 1472 ft 0 kts 83°